Regional Weather Roundup
Issued by NWS

Home | Current Version | Previous Version | Graphics & Text | Print | Product List | Glossary On
Versions: 1 2 3 4 5 6 7 8 9 10 11 12 13 14 15 16 17 18 19 20 21 22 23 24 25 26 27 28 29 30 31 32 33 34 35 36 37 38 39 40 41 42 43 44 45 46 47 48 49 50
000
ASUS43 KDTX 131210
RWRMI
MICHIGAN HOURLY REGIONAL WEATHER ROUNDUP
NATIONAL WEATHER SERVICE DETROIT/PONTIAC MI
700 AM EST SAT FEB 13 2016

NOTE: "FAIR" INDICATES FEW OR NO CLOUDS BELOW 12,000 FEET WITH NO
SIGNIFICANT WEATHER AND/OR OBSTRUCTION TO VISIBILITY.

MIZ047>049-052>055-059>063-066>070-074>076-081>083-131300-
SOUTHEAST LOWER MICHIGAN

CITY           SKY/WX    TMP DP  RH WIND       PRES   REMARKS
ADRIAN         CLEAR      1  -7  68 W6        30.40R WCI -10
6HR MIN TEMP:   1; 6HR MAX TEMP:   7;

ALMA           MOCLDY     6   2  85 W9        30.37S WCI  -8
ANN ARBOR      PTCLDY    -2  -8  76 W3        30.38R
BAD AXE        CLEAR     -2 -10  68 NW6       30.36R WCI -14
CARO           CLOUDY    -6 -11  77 CALM      30.37R
DETROIT CITY   PTCLDY     3  -7  63 NW7       30.39R WCI  -9
6HR MIN TEMP:   3; 6HR MAX TEMP:   7;

DETROIT        PTCLDY     2  -7  66 W7        30.40R WCI -11
6HR MIN TEMP:   2; 6HR MAX TEMP:   8;

FLINT          CLOUDY     2  -6  69 W3        30.37R
6HR MIN TEMP:  -3; 6HR MAX TEMP:   6; 6HR PCP: TRACE;

GROSSE ILE     CLEAR      3  -6  66 W7        30.39R WCI  -9
HILLSDALE      CLEAR      0  -8  70 W7        30.35S WCI -13
6HR MIN TEMP:  -1; 6HR MAX TEMP:   6;

HOWELL         MOCLDY     3  -3  75 W8        30.35S HAZE    WCI -10
6HR MIN TEMP:   1; 6HR MAX TEMP:   4;


CITY           SKY/WX    TMP DP  RH WIND       PRES   REMARKS
JACKSON        CLEAR      3  -5  69 NW9       30.37R WCI -12
6HR MIN TEMP:   1; 6HR MAX TEMP:   5;

LAMBERTVILLE   CLEAR      1  -7  69 CALM      30.42R
6HR MIN TEMP:   1; 6HR MAX TEMP:   8;

LANSING        CLEAR      4  -3  73 W10       30.38R WCI -11
6HR MIN TEMP:   2; 6HR MAX TEMP:   5;

LAPEER         FAIR      -3  -7  82 NW3       30.36R
6HR MIN TEMP:  -3; 6HR MAX TEMP:   3;

MASON          CLEAR      2  -4  77 W7        30.37R WCI -11
MONROE         CLEAR      2  -7  66 W5        30.40R WCI  -7
6HR MIN TEMP:   2; 6HR MAX TEMP:   9;

MT. CLEMENS    CLEAR      2  -6  72 W7        30.37R WCI -11
6HR MIN TEMP:   2; 6HR MAX TEMP:   6; 6HR PCP: TRACE;

PONTIAC        MOCLDY     0  -6  76 W3        30.34R
6HR MIN TEMP:  -1; 6HR MAX TEMP:   4;

PORT HOPE        N/A      4  -5  66 NW18G32   30.33R WCI -16
6HR MIN TEMP:   4; 6HR MAX TEMP:   8;

PORT HURON     CLEAR      0  -8  71 W7        30.36R WCI -13
TRI CITIES     CLOUDY     1  -7  68 NE5       30.39R WCI  -9
6HR MIN TEMP:   0; 6HR MAX TEMP:   6;

MIDLAND        CLOUDY    -1  -8  72 CALM      30.39S
6HR MIN TEMP:  -1; 6HR MAX TEMP:   5;

TROY           MOCLDY     4  -5  67 W8        30.40R WCI  -9
SAGINAW HB     CLOUDY     1  -4  78 NW3       30.39R
$$
MIZ043>046-050>051-056>058-064>065-071>073-077>080-131300-
SOUTHWEST LOWER MICHIGAN

CITY           SKY/WX    TMP DP  RH WIND       PRES   REMARKS
BATTLE CREEK   MOCLDY     0  -5  79 W7        30.40R WCI -13
6HR MIN TEMP:  -3; 6HR MAX TEMP:   6;

BENTON HARBOR  LGT SNOW  13   4  67 NW14G23   30.46R WCI  -2
6HR MIN TEMP:  12; 6HR MAX TEMP:  14; 6HR PCP: TRACE;

BIG RAPIDS     LGT SNOW   8   4  84 W7        30.34R WCI  -4
6HR MIN TEMP:   1; 6HR MAX TEMP:   8;

COLDWATER      MOCLDY     0  -6  76 W6        30.40S WCI -11
6HR MIN TEMP:  -3; 6HR MAX TEMP:   7;

FREMONT        LGT SNOW   9   5  84 NW5       30.40R WCI   0
HOLLAND        FLURRIES  11   6  81 CALM      30.43R
6HR MIN TEMP:   7; 6HR MAX TEMP:  11; 6HR PCP:  0.08;

GRAND RAPIDS   MOCLDY     5   1  83 W7        30.40R WCI  -7
6HR MIN TEMP:   3; 6HR MAX TEMP:   9;

IONIA          CLOUDY     6   0  77 W8        30.37S WCI  -7
6HR MIN TEMP:   3; 6HR MAX TEMP:   6;

KALAMAZOO      LGT SNOW   3  -1  83 SW7       30.41S FOG     WCI  -9
6HR MIN TEMP:  -6; 6HR MAX TEMP:   6; 6HR PCP: TRACE;

LUDINGTON      LGT SNOW  10   2  71 NW10G22   30.41S WCI  -4
6HR MIN TEMP:   9; 6HR MAX TEMP:  10;

MARSHALL       CLEAR     -2  -7  81 W6        30.39R WCI -14
6HR MIN TEMP:  -2; 6HR MAX TEMP:   6;

MOUNT PLEASANT LGT SNOW   2  -5  73 CALM      30.37R
MUSKEGON       LGT SNOW  11   5  77 NW9       30.43R VSB 1   WCI  -2
6HR MIN TEMP:   9; 6HR MAX TEMP:  11; 6HR PCP:  0.03;

SOUTH HAVEN    LGT SNOW  12   7  78 NW10G20   30.44R WCI  -1
$$
MIZ016>042-131300-
NORTHERN LOWER MICHIGAN

CITY           SKY/WX    TMP DP  RH WIND       PRES   REMARKS
ALPENA         PTCLDY   -10 -15  78 W5        30.38R WCI -22
6HR MIN TEMP: -10; 6HR MAX TEMP:  -2; 6HR PCP: TRACE;

BEAVER ISLAND  LGT SNOW  -3  -7  82 E6        30.38S WCI -15
6HR MIN TEMP:  -3; 6HR MAX TEMP:   2;

BELLAIRE       CLOUDY    -8 -14  74 CALM      30.40S
6HR MIN TEMP:  -8; 6HR MAX TEMP:   4;

CADILLAC       LGT SNOW  -1  -5  80 E3        30.28R
CHARLEVOIX     CLOUDY    -8 -14  73 SE8       30.40S WCI -24
6HR MIN TEMP:  -8; 6HR MAX TEMP:   3;

FRANKFORT      CLOUDY    10   1  67 NW16G24   30.37S HAZE    WCI  -7
GAYLORD        CLOUDY   -20 -27  70 CALM      30.29R
6HR MIN TEMP: -22; 6HR MAX TEMP:  -6;

GRAYLING       PTCLDY   -19 -26  71 CALM      30.33S
6HR MIN TEMP: -22; 6HR MAX TEMP:  -1;

HARBOR SPRINGS CLOUDY   -11 -17  75 CALM      30.37S
HOUGHTON LAKE  CLOUDY   -10 -15  78 E5        30.33R WCI -22
6HR MIN TEMP: -10; 6HR MAX TEMP:   3; 6HR PCP: TRACE;

MANISTEE       CLOUDY    10  -2  56 NW16G24   30.38S WCI  -7
OSCODA         CLEAR    -11 -17  75 W7        30.39R WCI -26
6HR MIN TEMP: -11; 6HR MAX TEMP:   0;

PELLSTON       PTCLDY   -21 -26  77 CALM      30.39R
6HR MIN TEMP: -22; 6HR MAX TEMP:  -6;

ROGERS CITY    LGT SNOW  -4 -12  69 NW10G16   30.39R WCI -22
TRAVERSE CITY  LGT SNOW   0  -5  79 E7        30.36S VSB 1   WCI -13
6HR MIN TEMP:   0; 6HR MAX TEMP:  10; 6HR PCP:  0.03;

$$
MIZ007>008-015-131300-
EASTERN UPPER MICHIGAN

CITY           SKY/WX    TMP DP  RH WIND       PRES   REMARKS
KINROSS        CLOUDY   -17 -20  83 SW5       30.38R WCI -29
6HR MIN TEMP: -18; 6HR MAX TEMP: -13;

MACKINAC ISLAN CLEAR    -13 -20  70 NE3       30.38R
6HR MIN TEMP: -14; 6HR MAX TEMP: -10;

NEWBERRY       CLOUDY   -13 -17  83 SE6       30.36R FOG     WCI -27
6HR MIN TEMP: -13; 6HR MAX TEMP:   0;

S. S. MARIE    PTCLDY   -15 -25  60 N7        30.38R WCI -31
6HR MIN TEMP: -18; 6HR MAX TEMP: -12;

MUNISING         N/A      7   1  76 N17G32    30.37R WCI -12
6HR MIN TEMP:   7; 6HR MAX TEMP:   8; 6HR PCP:  0.02;

$$
MIZ004>006-011>014-085-131300-
CENTRAL UPPER MICHIGAN

CITY           SKY/WX    TMP DP  RH WIND       PRES   REMARKS
MANISTIQUE     LGT SNOW  -1  -5  82 E6        30.36R WCI -12
6HR MIN TEMP:  -1; 6HR MAX TEMP:   4;

ESCANABA       CLEAR      0  -8  71 W12G18    30.42R WCI -18
6HR MIN TEMP:  -2; 6HR MAX TEMP:   0;

MENOMINEE      CLEAR     -6 -11  77 NW5       30.47S WCI -17
6HR MIN TEMP:  -6; 6HR MAX TEMP:   0;

SAWYER-GWINN   CLOUDY    -2  -8  78 NW10      30.34S WCI -19
$$
MIZ001>003-009>011-084-131300-
WESTERN UPPER MICHIGAN

CITY           SKY/WX    TMP DP  RH WIND       PRES   REMARKS
IRON MOUNTAIN  PTCLDY   -11 -16  78 NW3       30.40R
6HR MIN TEMP: -15; 6HR MAX TEMP:  -9;

HOUGHTON       LGT SNOW   1  -6  72 NW14      30.40S VSB 3/4 WCI -17
6HR MIN TEMP:   0; 6HR MAX TEMP:   1; 6HR PCP: TRACE;

COPPER HARBOR    N/A      5  -1  76 N22G33    30.42R WCI -16
6HR MIN TEMP:   4; 6HR MAX TEMP:   6;

IRONWOOD       CLOUDY     0  -6  78 W14       30.45R WCI -19
6HR MIN TEMP:   0; 6HR MAX TEMP:   1;

$$

ABBREVIATIONS USED IN REMARKS
   TC - TEMPERATURE IN CELSIUS
  WCI - WIND CHILL INDEX
   HX - HEAT INDEX
  VSB - VISIBILITY




USA.gov is the U.S. government's official web portal to all federal, state and local government web resources and services.